Find Molniya-1

NORAD ID: 21426 Int'l Des: 1991-043 Owner: UNKSR Country: SU operational
MEOELLIPTICALHEO_ELLIPTICALSEMI_SYNCMOLNIYA

Live-Position

3D-Globus wird geladen...

Über Molniya-1

Beschreibung wird geladen...

Nächste Überflüge

Passes for default location (London). Set your location on the main map for personalized predictions.

Höhenverlauf

Loading altitude history...

Zweizeiliger Elementsatz

1 21426U 91043A 26104.28049654 .00000335 00000-0 00000+0 0 9993
2 21426 63.4161 186.3119 6750588 258.4552 24.4237 2.00606768255185
Epoch: 14. Apr. 2026 • Age: 60 hours

Aktueller Status

Höhe 17388.3 km
Geschwindigkeit 4.31 km/s
Subsatellitenpunkt 21.23°N, 64.89°E
Startdatum 18. Juni 1991
Alter 34.8 years
Typ other

Technische Details

Klassifizierung Payload
Masse 1670.00 kg
Trockenmasse 1620.00 kg
Gesamtmasse 1670.00 kg
Länge 4.40 m
Durchmesser 1.40 m
Spannweite 8.60 m
Form Cyl + 6 Pan
Hersteller NPOPM
Bus-Typ Molniya-1T
Phasenstatus In Orbit
Besitzer/Staat UNKSR/SU

Most Searched